This is the latest recevied weather packets stored in our database for station/object N6RDS. If no packets are shown the sender has not sent any weather packets the latest 10 day(s).
| Time | Temp. | Humidity | Pressure | Rain* | Wind** | Luminosity | Snow |
|---|---|---|---|---|---|---|---|
| 1778004714 | 12.78° C | 43% | 1018.6 hPa | 0 mm | - | 158 W/m² | - |
| 1778004409 | 13.33° C | 41% | 1019 hPa | 0 mm | - | 840 W/m² | - |
| 1778004107 | 11.67° C | 45% | 1019 hPa | 0 mm | - | 827 W/m² | - |
| 1778003803 | 11.11° C | 47% | 1019.2 hPa | 0 mm | - | 148 W/m² | - |
| 1778003499 | 11.11° C | 48% | 1019.1 hPa | 0 mm | - | 272 W/m² | - |
| 1778003196 | 12.22° C | 45% | 1019.1 hPa | 0 mm | - | 192 W/m² | - |
| 1778002892 | 12.22° C | 43% | 1019.1 hPa | 0 mm | - | 970 W/m² | - |
| 1778002589 | 10.56° C | 47% | 1019.1 hPa | 0 mm | - | 419 W/m² | - |
| 1778002286 | 10.56° C | 46% | 1019.1 hPa | 0 mm | - | 257 W/m² | - |
| 1778001983 | 10.56° C | 49% | 1019 hPa | 0 mm | - | 370 W/m² | - |
| 1778001680 | 10.56° C | 49% | 1019.2 hPa | 0 mm | - | 431 W/m² | - |
| 1778001375 | 9.44° C | 51% | 1019.2 hPa | 0 mm | - | 355 W/m² | - |
| 1778001073 | 10° C | 50% | 1019.4 hPa | 0 mm | - | 157 W/m² | - |
| 1778000770 | 8.89° C | 53% | 1019.4 hPa | 0 mm | - | 197 W/m² | - |
| 1778000466 | 9.44° C | 51% | 1019.4 hPa | 0 mm | - | 243 W/m² | - |
| 1778000160 | 9.44° C | 52% | 1019.5 hPa | 0 mm | - | 157 W/m² | - |
| 1777999857 | 8.89° C | 56% | 1019.5 hPa | 0 mm | - | 242 W/m² | - |
| 1777999552 | 9.44° C | 54% | 1019.4 hPa | 0 mm | - | 201 W/m² | - |
| 1777999250 | 8.89° C | 54% | 1019.4 hPa | 0 mm | - | 162 W/m² | - |
| 1777998943 | 9.44° C | 53% | 1019.4 hPa | 0 mm | - | 173 W/m² | - |
| 1777998639 | 8.89° C | 52% | 1019.5 hPa | 0 mm | - | 782 W/m² | - |
| 1777998333 | 8.33° C | 57% | 1019.6 hPa | 0 mm | - | 443 W/m² | - |
| 1777998030 | 7.78° C | 57% | 1019.6 hPa | 0 mm | - | 158 W/m² | - |
| 1777997726 | 7.78° C | 59% | 1019.6 hPa | 0 mm | - | 119 W/m² | - |
| 1777997423 | 7.78° C | 58% | 1019.7 hPa | 0 mm | - | 121 W/m² | - |
* Rain latest hour (hover to see other rain measurements)
** Current wind speed in m/s (hover to see current wind gust speed)